W0WC Weather Reports


time (UTC)temp
F
wind
direction
speed
knots
gust
knots
rain 1hr
in
rain 24hr
in
rain mn
in
humidity
%
barometer
mb
20260902163940 94 229 3.5 3.5 0.00 0.00 0.00 45 1018.2
20260902163436 94 333 3.5 3.5 0.00 0.00 0.00 44 1018.2
20260902162933 94 145 3.5 5.2 0.00 0.00 0.00 45 1018.3
20260902162429 94 253 1.7 1.7 0.00 0.00 0.00 45 1018.3
20260902161928 94 0 3.5 5.2 0.00 0.00 0.00 46 1018.6
20260902161424 94 347 1.7 1.7 0.00 0.00 0.00 46 1018.5
20260902160920 93 234 4.3 6.1 0.00 0.00 0.00 46 1018.4
20260902160415 92 279 5.2 7.0 0.00 0.00 0.00 48 1018.4
20260902155913 91 199 2.6 2.6 0.00 0.00 0.00 50 1018.4
20260902155408 92 204 4.3 7.0 0.00 0.00 0.00 49 1018.6
20260902154902 91 288 2.6 3.5 0.00 0.00 0.00 50 1018.6
20260902154358 90 228 1.7 1.7 0.00 0.00 0.00 52 1018.6
20260902153857 90 166 4.3 7.0 0.00 0.00 0.00 52 1018.6
20260902153356 89 318 0.9 1.7 0.00 0.00 0.00 54 1018.4
20260902152852 90 218 4.3 6.1 0.00 0.00 0.00 53 1018.8
20260902152348 89 161 1.7 3.5 0.00 0.00 0.00 53 1018.5
20260902151843 89 161 2.6 2.6 0.00 0.00 0.00 54 1018.6
20260902151338 89 119 2.6 2.6 0.00 0.00 0.00 53 1018.4
20260902150833 89 34 1.7 1.7 0.00 0.00 0.00 54 1018.5
20260902150329 89 240 3.5 3.5 0.00 0.00 0.00 54 1018.5
20260902145828 89 19 0.9 1.7 0.00 0.00 0.00 54 1018.6
20260902145324 89 43 1.7 1.7 0.00 0.00 0.00 53 1018.3
20260902144819 90 266 5.2 7.8 0.00 0.00 0.00 52 1018.2
20260902144316 89 302 2.6 3.5 0.00 0.00 0.00 53 1018.4
20260902143810 89 167 5.2 7.0 0.00 0.00 0.00 53 1018.3
20260902143305 89 255 4.3 6.1 0.00 0.00 0.00 52 1018.4
20260902142801 89 198 2.6 3.5 0.00 0.00 0.00 53 1018.3
20260902142256 88 222 2.6 2.6 0.00 0.00 0.00 54 1018.4
20260902141756 88 187 2.6 3.5 0.00 0.00 0.00 53 1018.4
20260902141252 87 189 6.1 7.8 0.00 0.00 0.00 54 1018.2
20260902140746 87 164 3.5 5.2 0.00 0.00 0.00 55 1018.4
20260902140241 86 263 2.6 2.6 0.00 0.00 0.00 56 1018.4
20260902135740 86 271 2.6 3.5 0.00 0.00 0.00 56 1018.6
20260902135236 86 195 3.5 6.1 0.00 0.00 0.00 56 1018.5
20260902134736 85 187 2.6 2.6 0.00 0.00 0.00 56 1018.3
20260902134231 84 192 3.5 6.1 0.00 0.00 0.00 58 1018.2
20260902133726 84 199 4.3 5.2 0.00 0.00 0.00 58 1018.3
20260902133225 84 251 3.5 3.5 0.00 0.00 0.00 58 1018.3
20260902132721 84 204 2.6 3.5 0.00 0.00 0.00 59 1018.3
20260902132216 84 213 3.5 5.2 0.00 0.00 0.00 59 1018.5
20260902131712 83 190 3.5 6.1 0.00 0.00 0.00 60 1018.5
20260902131209 83 86 1.7 1.7 0.00 0.00 0.00 60 1018.3
20260902130708 83 226 4.3 6.1 0.00 0.00 0.00 60 1018.4
20260902130204 83 63 2.6 3.5 0.00 0.00 0.00 61 1018.2
20260902125700 83 176 2.6 3.5 0.00 0.00 0.00 61 1018.4
20260902125156 83 69 1.7 1.7 0.00 0.00 0.00 61 1018.3
20260902124652 83 134 3.5 3.5 0.00 0.00 0.00 61 1018.3
20260902124151 82 181 1.7 1.7 0.00 0.00 0.00 62 1018.1
20260902123647 82 121 1.7 2.6 0.00 0.00 0.00 62 1018.0
20260902123142 82 167 2.6 3.5 0.00 0.00 0.00 63 1018.2
20260902122637 82 94 3.5 3.5 0.00 0.00 0.00 63 1018.0
20260902122133 81 62 1.7 2.6 0.00 0.00 0.00 64 1018.0
20260902121632 81 186 3.5 6.1 0.00 0.00 0.00 64 1017.9
20260902121127 81 171 5.2 6.1 0.00 0.00 0.00 64 1017.6
20260902120623 81 181 3.5 5.2 0.00 0.00 0.00 64 1017.6
20260902120120 81 163 3.5 3.5 0.00 0.00 0.00 64 1017.6
20260902115614 81 78 2.6 3.5 0.00 0.00 0.00 63 1017.6
20260902115110 82 108 0.9 1.7 0.00 0.00 0.00 63 1017.5
20260902114606 82 329 3.5 5.2 0.00 0.00 0.00 63 1017.4
20260902114105 81 202 4.3 5.2 0.00 0.00 0.00 63 1017.3
20260902113601 81 112 4.3 7.0 0.00 0.00 0.00 63 1017.3
20260902113056 81 185 5.2 6.1 0.00 0.00 0.00 63 1017.3
20260902112551 81 9 1.7 2.6 0.00 0.00 0.00 63 1017.3
20260902112048 82 178 3.5 3.5 0.00 0.00 0.00 63 1017.1
20260902111544 81 131 3.5 5.2 0.00 0.00 0.00 63 1017.2
20260902111040 81 186 2.6 3.5 0.00 0.00 0.00 63 1017.2
20260902110536 82 208 2.6 2.6 0.00 0.00 0.00 63 1017.2
20260902110031 82 152 1.7 1.7 0.00 0.00 0.00 63 1017.2
20260902105531 82 131 1.7 2.6 0.00 0.00 0.00 63 1017.2
20260902105025 82 38 1.7 1.7 0.00 0.00 0.00 62 1017.1
20260902104521 82 47 0.9 1.7 0.00 0.00 0.00 62 1017.1
20260902104016 82 76 1.7 1.7 0.00 0.00 0.00 62 1017.1
20260902103511 82 169 0.9 1.7 0.00 0.00 0.00 61 1017.1
20260902103007 82 54 0.9 1.7 0.00 0.00 0.00 61 1016.9
20260902102503 82 148 0.9 1.7 0.00 0.00 0.00 61 1017.2
20260902102000 82 109 3.5 3.5 0.00 0.00 0.00 61 1017.1
20260902101459 83 188 2.6 3.5 0.00 0.00 0.00 61 1017.1
20260902100958 83 168 0.9 2.6 0.00 0.00 0.00 60 1017.1
20260902100453 83 266 4.3 6.1 0.00 0.00 0.00 60 1017.1
20260902095953 83 106 0.9 1.7 0.00 0.00 0.00 60 1017.0
20260902095448 83 316 1.7 1.7 0.00 0.00 0.00 60 1017.1
20260902094947 83 28 1.7 2.6 0.00 0.00 0.00 60 1016.9
20260902094444 83 40 0.9 1.7 0.00 0.00 0.00 60 1016.8
20260902093944 83 192 4.3 5.2 0.00 0.00 0.00 59 1016.9
20260902093439 83 35 2.6 2.6 0.00 0.00 0.00 59 1016.8
20260902092938 83 23 0.9 1.7 0.00 0.00 0.00 59 1017.0
20260902092434 84 131 2.6 3.5 0.00 0.00 0.00 59 1016.6
20260902091933 84 176 5.2 7.0 0.00 0.00 0.00 59 1017.0
20260902091429 84 189 2.6 2.6 0.00 0.00 0.00 58 1016.9
20260902090925 84 125 1.7 2.6 0.00 0.00 0.00 58 1016.7
20260902090425 84 126 3.5 3.5 0.00 0.00 0.00 58 1016.6
20260902085924 84 129 2.6 3.5 0.00 0.00 0.00 58 1016.6
20260902085420 84 90 2.6 2.6 0.00 0.00 0.00 58 1016.7
20260902084915 84 113 2.6 2.6 0.00 0.00 0.00 58 1016.6
20260902084411 84 183 4.3 6.1 0.00 0.00 0.00 58 1016.8
20260902083907 84 212 3.5 3.5 0.00 0.00 0.00 57 1016.7
20260902083406 84 50 2.6 2.6 0.00 0.00 0.00 57 1016.5
20260902082901 84 190 4.3 6.1 0.00 0.00 0.00 57 1016.6
20260902082357 84 150 2.6 3.5 0.00 0.00 0.00 57 1016.7
20260902081854 84 216 1.7 2.6 0.00 0.00 0.00 57 1016.6
20260902081349 85 118 3.5 7.0 0.00 0.00 0.00 56 1016.7
20260902080844 85 133 3.5 5.2 0.00 0.00 0.00 56 1016.6
20260902080341 85 187 7.8 9.6 0.00 0.00 0.00 56 1016.6
20260902075840 85 203 4.3 6.1 0.00 0.00 0.00 56 1016.8
20260902075336 85 164 2.6 2.6 0.00 0.00 0.00 56 1016.7
20260902074831 85 107 0.9 1.7 0.00 0.00 0.00 55 1016.7
20260902074327 85 180 3.5 6.1 0.00 0.00 0.00 55 1016.4
20260902073821 85 71 3.5 3.5 0.00 0.00 0.00 55 1016.7
20260902073318 85 206 6.1 12.2 0.00 0.00 0.00 55 1016.7
20260902072814 86 125 4.3 5.2 0.00 0.00 0.00 54 1016.7
20260902072310 86 74 3.5 5.2 0.00 0.00 0.00 54 1016.4
20260902071805 86 211 5.2 6.1 0.00 0.00 0.00 54 1016.6
20260902071300 86 68 4.3 6.1 0.00 0.00 0.00 54 1016.5
20260902070756 86 189 2.6 3.5 0.00 0.00 0.00 54 1016.6
20260902070256 86 183 2.6 3.5 0.00 0.00 0.00 54 1016.5
20260902065755 86 172 4.3 6.1 0.00 0.00 0.00 53 1016.4
20260902065250 86 122 4.3 5.2 0.00 0.00 0.00 53 1016.7
20260902064746 86 39 3.5 6.1 0.00 0.00 0.00 53 1016.6
20260902064242 86 178 3.5 3.5 0.00 0.00 0.00 53 1016.5
20260902063737 86 89 4.3 5.2 0.00 0.00 0.00 53 1016.7
20260902063232 86 319 1.7 1.7 0.00 0.00 0.00 53 1016.4
20260902062731 85 195 4.3 5.2 0.00 0.00 0.00 54 1016.6
20260902062226 85 127 5.2 9.6 0.00 0.00 0.00 54 1016.7
20260902061725 85 147 1.7 2.6 0.00 0.00 0.00 54 1016.5
20260902061221 85 174 3.5 3.5 0.00 0.00 0.00 54 1016.7
20260902060717 85 92 2.6 2.6 0.00 0.00 0.00 54 1016.5
20260902060213 85 300 0.9 0.9 0.00 0.00 0.00 54 1016.5
20260902055709 85 81 3.5 5.2 0.00 0.00 0.00 53 1016.5
20260902055204 85 157 3.5 5.2 0.00 0.00 0.00 53 1016.5
20260902054659 85 118 2.6 2.6 0.00 0.00 0.00 53 1016.5
20260902054155 85 48 0.9 1.7 0.00 0.00 0.00 53 1016.3
20260902053650 85 95 2.6 3.5 0.00 0.00 0.00 53 1016.5
20260902053150 85 137 2.6 3.5 0.00 0.00 0.00 52 1016.6
20260902052649 85 158 1.7 1.7 0.00 0.00 0.00 52 1016.5
20260902052145 85 77 2.6 2.6 0.00 0.00 0.00 52 1016.6
20260902051644 85 348 0.0 0.9 0.00 0.00 0.00 53 1016.7
20260902051139 85 80 0.9 0.9 0.00 0.00 0.00 52 1016.6
20260902050633 85 43 0.0 0.0 0.00 0.00 0.00 52 1016.7
20260902050129 85 8 0.9 0.9 0.00 0.00 0.00 52 1016.6
20260902045624 85 92 0.9 1.7 0.00 0.00 0.00 52 1016.7
20260902045120 85 22 0.0 0.9 0.00 0.00 0.00 52 1016.6
20260902044615 85 10 1.7 1.7 0.00 0.00 0.00 51 1016.6
20260902044111 86 172 0.9 0.9 0.00 0.00 0.00 51 1016.6
20260902043606 86 138 1.7 1.7 0.00 0.00 0.00 51 1016.6
20260902043106 86 143 0.9 1.7 0.00 0.00 0.00 50 1016.5
20260902042600 86 182 2.6 2.6 0.00 0.00 0.00 50 1016.4
20260902042055 86 142 2.6 3.5 0.00 0.00 0.00 49 1016.4
20260902041554 87 196 3.5 3.5 0.00 0.00 0.00 49 1016.3
20260902041049 87 79 3.5 5.2 0.00 0.00 0.00 49 1016.1
20260902040543 87 18 0.0 0.9 0.00 0.00 0.00 48 1016.4
20260902040038 87 142 4.3 5.2 0.00 0.00 0.00 47 1016.2
20260902035531 88 179 3.5 3.5 0.00 0.00 0.00 47 1016.4
20260902035027 88 131 3.5 3.5 0.00 0.00 0.00 46 1016.3
20260902034526 89 45 2.6 2.6 0.00 0.00 0.00 46 1016.1
20260902034025 89 35 0.9 1.7 0.00 0.00 0.00 45 1016.2
20260902033525 89 20 1.7 1.7 0.00 0.00 0.00 45 1016.3
20260902033020 89 45 1.7 1.7 0.00 0.00 0.00 45 1016.4
20260902032513 89 82 2.6 3.5 0.00 0.00 0.00 45 1016.1
20260902032009 89 95 2.6 2.6 0.00 0.00 0.00 45 1016.0
20260902031508 89 57 0.9 0.9 0.00 0.00 0.00 45 1016.2
20260902031005 89 70 2.6 3.5 0.00 0.00 0.00 45 1015.8
20260902030505 89 59 1.7 1.7 0.00 0.00 0.00 44 1015.8
20260902030004 90 36 1.7 1.7 0.00 0.00 0.00 44 1015.8
20260902025459 90 46 0.9 0.9 0.00 0.00 0.00 44 1015.8
20260902024954 90 28 0.0 0.0 0.00 0.00 0.00 44 1015.8
20260902024450 90 311 1.7 1.7 0.00 0.00 0.00 44 1015.7
20260902023949 90 46 0.0 0.0 0.00 0.00 0.00 44 1015.7
20260902023446 90 123 1.7 2.6 0.00 0.00 0.00 43 1015.7
20260902022945 90 22 0.0 0.9 0.00 0.00 0.00 43 1015.4
20260902022440 91 23 0.0 0.0 0.00 0.00 0.00 43 1015.5
20260902021936 91 33 0.0 0.9 0.00 0.00 0.00 42 1015.3
20260902021436 91 22 0.0 0.9 0.00 0.00 0.00 42 1015.3
20260902020932 91 50 0.9 1.7 0.00 0.00 0.00 41 1015.2
20260902020429 91 21 0.0 0.0 0.00 0.00 0.00 42 1015.3
20260902015924 91 92 1.7 1.7 0.00 0.00 0.00 42 1015.2
20260902015420 91 26 0.0 0.9 0.00 0.00 0.00 42 1015.1
20260902014915 91 24 0.0 0.0 0.00 0.00 0.00 42 1015.1
20260902014412 92 20 0.0 0.0 0.00 0.00 0.00 42 1015.1
20260902013910 92 13 0.0 0.0 0.00 0.00 0.00 41 1014.9
20260902013406 93 359 0.0 0.0 0.00 0.00 0.00 41 1015.0
20260902012901 93 8 0.0 0.9 0.00 0.00 0.00 39 1014.9
20260902012357 93 328 0.0 0.9 0.00 0.00 0.00 39 1015.0
20260902011853 93 10 0.0 0.0 0.00 0.00 0.00 39 1014.9
20260902011353 93 57 0.9 0.9 0.00 0.00 0.00 39 1014.9
20260902010852 93 23 0.0 0.9 0.00 0.00 0.00 38 1014.9
20260902010347 94 19 0.0 0.0 0.00 0.00 0.00 38 1014.7
20260902005846 94 13 0.0 0.9 0.00 0.00 0.00 38 1014.8
20260902005340 94 7 0.0 0.0 0.00 0.00 0.00 38 1014.8
20260902004836 95 9 0.0 0.0 0.00 0.00 0.00 37 1014.8
20260902004336 95 42 0.0 0.0 0.00 0.00 0.00 37 1014.7
20260902003831 95 57 0.0 0.9 0.00 0.00 0.00 37 1014.8
20260902003326 96 4 0.0 0.9 0.00 0.00 0.00 36 1014.9
20260902002822 96 2 0.9 0.9 0.00 0.00 0.00 35 1014.9
20260902002321 96 26 0.9 0.9 0.00 0.00 0.00 35 1014.9
20260902001817 97 182 2.6 2.6 0.00 0.00 0.00 35 1014.8
20260902001312 97 54 0.9 0.9 0.00 0.00 0.00 34 1014.8
20260902000812 97 13 1.7 1.7 0.00 0.00 0.00 34 1015.1
20260902000307 97 98 2.6 2.6 0.00 0.00 0.00 34 1014.9
20260901235802 97 6 0.0 0.9 0.00 0.00 0.00 34 1014.9
20260901235256 98 169 3.5 3.5 0.00 0.00 0.00 34 1014.9
20260901234756 99 101 1.7 2.6 0.00 0.00 0.00 33 1015.1
20260901234251 99 236 0.9 1.7 0.00 0.00 0.00 33 1015.0
20260901233746 99 228 3.5 3.5 0.00 0.00 0.00 33 1015.1
20260901233242 99 356 0.9 0.9 0.00 0.00 0.00 33 1015.2
20260901232742 99 196 2.6 3.5 0.00 0.00 0.00 33 1015.2
20260901232237 99 266 2.6 2.6 0.00 0.00 0.00 33 1015.2
20260901231734 99 307 1.7 1.7 0.00 0.00 0.00 33 1015.3
20260901231230 99 193 3.5 5.2 0.00 0.00 0.00 33 1015.1
20260901230726 99 224 1.7 5.2 0.00 0.00 0.00 33 1015.4
20260901230225 100 290 1.7 1.7 0.00 0.00 0.00 32 1015.2
20260901225720 100 194 5.2 6.1 0.00 0.00 0.00 31 1015.2
20260901225214 100 122 5.2 7.0 0.00 0.00 0.00 32 1015.3
20260901224711 99 9 0.0 0.9 0.00 0.00 0.00 33 1015.4
20260901224206 98 33 0.9 1.7 0.00 0.00 0.00 33 1015.4
20260901223702 98 160 2.6 2.6 0.00 0.00 0.00 34 1015.4
20260901223157 99 214 1.7 3.5 0.00 0.00 0.00 33 1015.4
20260901222653 100 162 3.5 3.5 0.00 0.00 0.00 32 1015.3
20260901222149 99 196 1.7 2.6 0.00 0.00 0.00 33 1015.4
20260901221645 99 84 3.5 5.2 0.00 0.00 0.00 32 1015.3
20260901221141 99 92 1.7 1.7 0.00 0.00 0.00 33 1015.2
20260901220639 99 189 3.5 5.2 0.00 0.00 0.00 32 1015.4
20260901220139 100 104 1.7 3.5 0.00 0.00 0.00 32 1015.2
20260901215637 101 346 1.7 2.6 0.00 0.00 0.00 31 1015.4
20260901215132 100 84 1.7 3.5 0.00 0.00 0.00 31 1015.5
20260901214630 100 109 1.7 2.6 0.00 0.00 0.00 32 1015.4
20260901214125 100 115 2.6 2.6 0.00 0.00 0.00 32 1015.3
20260901213624 101 101 5.2 7.8 0.00 0.00 0.00 31 1015.3
20260901213119 100 79 1.7 1.7 0.00 0.00 0.00 32 1015.3
20260901212619 100 99 4.3 6.1 0.00 0.00 0.00 32 1015.3
20260901212115 100 109 1.7 2.6 0.00 0.00 0.00 33 1015.4
20260901211610 100 96 2.6 2.6 0.00 0.00 0.00 33 1015.5
20260901211107 100 155 3.5 3.5 0.00 0.00 0.00 32 1015.5
20260901210601 101 136 2.6 3.5 0.00 0.00 0.00 32 1015.5
20260901210058 102 189 2.6 3.5 0.00 0.00 0.00 30 1015.9
20260901205554 102 337 2.6 2.6 0.00 0.00 0.00 31 1015.9
20260901205053 102 196 3.5 3.5 0.00 0.00 0.00 31 1015.8
20260901204549 102 199 5.2 7.0 0.00 0.00 0.00 31 1015.9
20260901204044 102 272 4.3 7.0 0.00 0.00 0.00 31 1015.9
20260901203544 102 202 6.1 7.0 0.00 0.00 0.00 31 1015.9
20260901203039 101 96 0.9 1.7 0.00 0.00 0.00 32 1016.1
20260901202534 101 155 4.3 6.1 0.00 0.00 0.00 31 1016.2
20260901202030 100 280 2.6 2.6 0.00 0.00 0.00 32 1016.3
20260901201525 99 13 0.0 0.9 0.00 0.00 0.00 33 1016.2
20260901201020 100 50 4.3 7.0 0.00 0.00 0.00 33 1016.3
20260901200519 100 63 1.7 1.7 0.00 0.00 0.00 33 1016.3
20260901200019 101 351 1.7 2.6 0.00 0.00 0.00 32 1016.2
20260901195517 100 275 1.7 1.7 0.00 0.00 0.00 33 1016.4
20260901195017 101 39 0.9 1.7 0.00 0.00 0.00 33 1016.6
20260901194512 100 337 1.7 1.7 0.00 0.00 0.00 33 1016.4
20260901194008 100 219 4.3 5.2 0.00 0.00 0.00 33 1016.7
20260901193507 99 185 1.7 2.6 0.00 0.00 0.00 34 1016.8
20260901193002 99 162 4.3 5.2 0.00 0.00 0.00 33 1016.7
20260901192457 99 3 1.7 1.7 0.00 0.00 0.00 34 1016.9
20260901191954 99 24 0.9 0.9 0.00 0.00 0.00 34 1017.0
20260901191449 99 222 1.7 1.7 0.00 0.00 0.00 34 1017.0
20260901190945 99 304 2.6 2.6 0.00 0.00 0.00 34 1017.0
20260901190440 100 230 6.1 7.8 0.00 0.00 0.00 33 1016.9
20260901185937 98 31 0.0 0.0 0.00 0.00 0.00 35 1017.0
20260901185437 99 99 3.5 3.5 0.00 0.00 0.00 35 1017.4
20260901184937 99 177 1.7 1.7 0.00 0.00 0.00 35 1017.2
20260901184432 100 219 4.3 6.1 0.00 0.00 0.00 34 1017.2
20260901183927 100 358 1.7 2.6 0.00 0.00 0.00 35 1017.4
20260901183427 98 289 3.5 5.2 0.00 0.00 0.00 35 1017.4
20260901182923 98 9 0.0 0.9 0.00 0.00 0.00 36 1017.6
20260901182418 98 8 0.9 0.9 0.00 0.00 0.00 35 1017.6
20260901181913 99 343 1.7 2.6 0.00 0.00 0.00 35 1017.9
20260901181409 98 79 3.5 5.2 0.00 0.00 0.00 36 1017.6
20260901180907 98 354 1.7 1.7 0.00 0.00 0.00 36 1017.9
20260901180406 99 277 3.5 3.5 0.00 0.00 0.00 36 1017.8
20260901175905 98 329 0.9 1.7 0.00 0.00 0.00 37 1017.9
20260901175359 98 236 0.9 2.6 0.00 0.00 0.00 37 1018.1
20260901174855 98 280 0.9 1.7 0.00 0.00 0.00 38 1018.3
20260901174351 97 232 0.9 1.7 0.00 0.00 0.00 38 1018.5
20260901173846 97 260 6.1 8.7 0.00 0.00 0.00 38 1018.2
20260901173341 97 162 5.2 7.0 0.00 0.00 0.00 39 1018.4
20260901172837 97 308 1.7 2.6 0.00 0.00 0.00 40 1018.6
20260901172336 96 197 5.2 6.1 0.00 0.00 0.00 39 1018.5
20260901171835 96 150 2.6 5.2 0.00 0.00 0.00 41 1018.7
20260901171334 97 218 5.2 7.0 0.00 0.00 0.00 41 1018.8
20260901170833 97 5 0.9 1.7 0.00 0.00 0.00 41 1018.9
20260901170328 97 207 2.6 5.2 0.00 0.00 0.00 41 1018.8
20260901165827 97 338 1.7 1.7 0.00 0.00 0.00 40 1019.0
20260901165321 95 25 2.6 3.5 0.00 0.00 0.00 42 1019.0
20260901164818 96 273 2.6 3.5 0.00 0.00 0.00 43 1019.0
20260901164313 96 101 3.5 3.5 0.00 0.00 0.00 41 1019.1